Seward, AK

2:01 AM AKDT on August 20, 2017 (GMT -0800)
Seward

Weather History for PAWD - April, 2012

Change the Weather History Date:

Monday, April 16, 2012

  Actual Average Record
Temperature  
Mean Temperature 42 °F -  
Max Temperature 48 °F 43 °F 62 °F (1965)
Min Temperature 35 °F 33 °F 20 °F (1972)
Degree Days  
Heating Degree Days 24    
Moisture  
Dew Point 34 °F    
Average Humidity 86    
Maximum Humidity 93    
Minimum Humidity 56    
Precipitation  
Precipitation 0.09 in - - ()
Sea Level Pressure  
Sea Level Pressure 29.71 in    
Wind  
Wind Speed 1 mph (NNE)    
Max Wind Speed 8 mph    
Max Gust Speed -    
Visibility 8 miles    
Events Rain    
Averages and records for this station are not official NWS values.
T = Trace of Precipitation, MM = Missing Value Source: NWS Daily Summary

Daily Weather History Graph

Daily Weather History Graph

Search for Another Location

Airport or City:

Trip Planner

Search our weather history database for the weather conditions in past years. The results will help you decide how hot, cold, wet, or windy it might be!

Date:

Astronomy

Apr. 16, 2012 Rise Set
Actual Time 6:35 AM AKDT 9:20 PM AKDT
Civil Twilight 5:48 AM AKDT 10:08 PM AKDT
Nautical Twilight 4:45 AM AKDT 11:12 PM AKDT
Astronomical Twilight 3:10 AM AKDT 12:51 AM AKDT
Moon 5:10 AM AKDT (4/16) 4:30 PM AKDT (4/16)
Length of Visible Light 16h 19m
Length of Day
14h 45m
Waning Crescent, 18% of the Moon is Illuminated
Apr 16
Waning Crescent
Apr 20
New
Apr 29
First Quarter
May 5
Full
May 12
Last Quarter

Hourly Weather History & Observations

Time (AKDT) Temp. Windchill Dew Point Humidity Pressure Visibility Wind Dir Wind Speed Gust Speed Precip Events Conditions
12:53 AM 36.0 °F - 33.1 °F 89% 29.75 in 10.0 mi Calm Calm - 0.01 in Rain Light Rain
1:53 AM 36.0 °F - 33.1 °F 89% 29.73 in 9.0 mi Calm Calm - 0.01 in   Overcast
2:53 AM 35.1 °F 32.2 °F 32.0 °F 89% 29.73 in 9.0 mi ENE 3.5 mph - 0.00 in   Overcast
3:02 AM 35.6 °F - 33.8 °F 93% 29.72 in 10.0 mi Calm Calm - 0.00 in   Overcast
3:10 AM 35.6 °F - 33.8 °F 93% 29.72 in 10.0 mi Calm Calm - 0.00 in   Overcast
3:53 AM 35.1 °F - 33.1 °F 92% 29.72 in 7.0 mi Calm Calm - 0.00 in Rain Light Rain
3:59 AM 35.6 °F - 33.8 °F 93% 29.72 in 7.0 mi Calm Calm - 0.00 in   Overcast
4:11 AM 35.6 °F - 33.8 °F 93% 29.72 in 4.0 mi Calm Calm - 0.00 in Rain Light Rain
4:43 AM 35.6 °F - 33.8 °F 93% 29.72 in 5.0 mi Calm Calm - 0.02 in Rain Light Rain
4:53 AM 35.1 °F - 32.0 °F 89% 29.72 in 4.0 mi Calm Calm - 0.02 in Rain Light Rain
5:12 AM 35.6 °F - 33.8 °F 93% 29.72 in 8.0 mi Calm Calm - 0.02 in Rain Light Rain
5:21 AM 35.6 °F 32.8 °F 33.8 °F 93% 29.72 in 5.0 mi NNW 3.5 mph - 0.03 in Rain Light Rain
5:31 AM 35.6 °F - 32.0 °F 87% 29.72 in 4.0 mi Calm Calm - 0.03 in Rain Light Rain
5:39 AM 35.6 °F - 32.0 °F 87% 29.72 in 4.0 mi Calm Calm - 0.03 in Rain Light Rain
5:53 AM 35.1 °F - 33.1 °F 92% 29.72 in 7.0 mi Calm Calm - 0.03 in   Overcast
6:53 AM 36.0 °F - 33.1 °F 89% 29.72 in 10.0 mi Calm Calm - 0.01 in Rain Light Rain
7:53 AM 36.0 °F 32.1 °F 33.1 °F 89% 29.72 in 10.0 mi North 4.6 mph - 0.00 in   Overcast
8:53 AM 36.0 °F - 34.0 °F 93% 29.71 in 10.0 mi Calm Calm - N/A   Overcast
9:53 AM 37.0 °F - 34.0 °F 89% 29.71 in 10.0 mi Calm Calm - N/A   Overcast
10:53 AM 39.0 °F - 34.0 °F 82% 29.71 in 10.0 mi Calm Calm - 0.00 in   Overcast
11:53 AM 42.1 °F 39.2 °F 35.1 °F 76% 29.70 in 10.0 mi North 4.6 mph - 0.00 in   Overcast
12:53 PM 46.0 °F - 35.1 °F 66% 29.70 in 10.0 mi Calm Calm - N/A   Overcast
1:53 PM 46.0 °F 43.1 °F 34.0 °F 63% 29.70 in 10.0 mi NNE 5.8 mph - N/A   Overcast
2:53 PM 48.0 °F - 34.0 °F 58% 29.69 in 10.0 mi North 8.1 mph - N/A   Mostly Cloudy
3:53 PM 48.0 °F - 33.1 °F 56% 29.69 in 10.0 mi North 6.9 mph - N/A   Overcast
4:53 PM 43.0 °F - 37.0 °F 80% 29.69 in 10.0 mi Calm Calm - 0.00 in Rain Light Rain
5:53 PM 43.0 °F 40.3 °F 37.9 °F 82% 29.68 in 10.0 mi South 4.6 mph - 0.00 in   Overcast
6:53 PM 42.1 °F 40.2 °F 37.9 °F 85% 29.69 in 10.0 mi Variable 3.5 mph - 0.01 in Rain Light Rain
7:53 PM 42.1 °F - 39.0 °F 89% 29.68 in 10.0 mi Calm Calm - 0.00 in   Overcast
8:53 PM 39.0 °F 36.8 °F 36.0 °F 89% 29.68 in 10.0 mi SSE 3.5 mph - 0.00 in Rain Light Rain
9:36 PM 39.2 °F - 37.4 °F 93% 29.69 in 10.0 mi Calm Calm - 0.00 in   Overcast
9:53 PM 39.9 °F 37.8 °F 37.0 °F 89% 29.70 in 10.0 mi SSE 3.5 mph - 0.00 in   Overcast
10:53 PM 37.9 °F 35.5 °F 35.1 °F 89% 29.70 in 5.0 mi North 3.5 mph - 0.00 in   Overcast
11:53 PM 37.9 °F - 35.1 °F 89% 29.70 in 10.0 mi Calm Calm - N/A   Overcast